Flag for Germany Weather past 2 weeks in Bad Neuenahr-Ahrweiler, Rhineland-Palatinate, Germany

Now
40 °F

Passing clouds.


Feels Like: 32 °F
Forecast: 36 / 47 °F
Wind: 14 mph from West

Location: Bonn-Hangelar

Current Time: Apr 1, 2015 at 2:28:05 AM

Latest Report: Apr 1, 2015 at 2:00 AM


Visibility: 28 mi

Pressure: 29.93 "Hg

Humidity: 77%

Dew point: 33 °F

Location of Bad Neuenahr-AhrweilerLocation

Historic Weather in Bad Neuenahr-Ahrweiler — Graph

°F

Bad Neuenahr-Ahrweiler temperature yesterday

Maximum temperature yesterday: 51 °F (at 4:00 AM)
Minimum temperature yesterday: 37 °F (at 11:00 PM)
Average temperature yesterday: 47 °F

Past Weeks' High & Low Weather Summary

 TemperatureHumidityPressure
High60 °F (Mar 17, 1:00 PM)100% (Mar 19, 4:00 AM)30.40 "Hg (Mar 19, 4:00 AM)
Low32 °F (Mar 23, 2:00 AM)46% (Mar 17, 1:00 PM)29.35 "Hg (Mar 29, 6:00 PM)
Average43 °F84%29.99 "Hg
* Reported Midnight between Mar 16 and Mar 17 — Apr 1 1:00 AM, Bad Neuenahr-Ahrweiler, Weather by CustomWeather, © 2015

Note: Actual official high and low records may vary slightly from our data, if they occured in-between our weather recording intervals... More about our weather records

Advertising

Bad Neuenahr-Ahrweiler weather history for previous 24 hours

 ConditionsComfort  
Time TempWeatherWind HumidityBarometerVisibility
1:00 AM
Wed, Apr 1
40 °FOvercast.12 mph79%29.91 "Hg28 mi
12:00 AM38 °FPassing clouds.10 mph86%29.90 "Hg43 mi
11:00 PM
Tue, Mar 31
37 °FLow clouds.14 mph91%29.89 "Hg43 mi
10:00 PM40 °FPassing clouds.9 mph84%29.87 "Hg34 mi
9:00 PM41 °FOvercast.16 mph81%29.86 "Hg43 mi
8:00 PM48 °FLight rain. Partly sunny.10 mph52%29.80 "Hg43 mi
7:00 PM48 °FPartly sunny.12 mph56%29.77 "Hg43 mi
6:00 PM49 °FOvercast.14 mph54%29.77 "Hg16 mi
5:00 PM49 °FPassing clouds.16 mph51%29.75 "Hg37 mi
4:00 PM51 °FPassing clouds.16 mph54%29.70 "Hg9 mi
3:00 PM48 °FPartly sunny.16 mph58%29.67 "Hg28 mi
2:00 PM50 °FSprinkles. Overcast.14 mph69%29.62 "Hg16 mi
1:00 PM47 °FSprinkles. Overcast.16 mph74%29.58 "Hg11 mi
12:00 PM50 °FLow clouds.16 mph79%29.54 "Hg16 mi
11:00 AM49 °FLow clouds.17 mph70%29.50 "Hg19 mi
10:00 AM49 °FRain. Low clouds.20 mph85%29.44 "Hg16 mi
9:00 AM48 °FRain. Low clouds.16 mph91%29.41 "Hg12 mi
8:00 AM48 °FRain. Overcast.17 mph92%29.38 "Hg11 mi
7:00 AM49 °FRain. Low clouds.20 mph94%29.35 "Hg6 mi
6:00 AM50 °FRain. Low clouds.17 mph93%29.35 "Hg3 mi
5:00 AM51 °FLight rain. Passing clouds.16 mph89%29.35 "Hg11 mi
4:00 AM51 °FPassing clouds.17 mph85%29.41 "Hg40 mi
3:00 AM48 °FLow clouds.17 mph92%29.47 "Hg17 mi
2:00 AM45 °FOvercast.16 mph91%29.55 "Hg13 mi
Weather by CustomWeather, © 2015

See weather overviewHow to use our weather pages